[Iaude] MPEC R195: 2023 HX4 [a=2.03,e=0.52,i=22.3,H=20.00]
    mpec at marsden.cfa.harvard.edu 
    mpec at marsden.cfa.harvard.edu
       
    Thu Sep 14 10:09:03 EDT 2023
    
    
  
M.P.E.C. 2023-R195                           Issued 2023 September 14, 14:07 UT
     The Minor Planet Electronic Circulars contain information on unusual
         minor planets, routine data on comets and natural satellites,
         and occasional editorial announcements.  They are published
    on behalf of Division F of the International Astronomical Union by the
          Minor Planet Center, Smithsonian Astrophysical Observatory,
                          Cambridge, MA 02138, U.S.A.
			  
             Prepared using the Tamkin Foundation Computer Network
                              MPC at CFA.HARVARD.EDU
            URL https://www.minorplanetcenter.net/    ISSN 1523-6714
                                    2023 HX4                                    
                           Revision to MPEC 2023-H188                           
Additional Observations:
     K23H04X  C2020 04 03.59811614 43 57.340+20 15 35.01         22.20GVER195F52
     K23H04X  C2020 04 22.35943314 27 30.048+27 49 55.64         21.85GVER195F52
     K23H04X  C2020 04 22.37048514 27 29.216+27 50 10.36         21.87GVER195F52
     K23H04X  C2020 04 22.38150614 27 28.396+27 50 24.91         21.70GVER195F52
     K23H04X  C2020 04 28.35789014 19 54.586+29 53 26.71         22.32GVER195F52
     K23H04X  C2020 04 29.30137 14 18 38.69 +30 11 11.6          21.9 GVER195G96
     K23H04X  C2020 04 29.30654 14 18 38.32 +30 11 18.3          22.3 GVER195G96
     K23H04X  C2020 04 29.31171 14 18 37.84 +30 11 23.7          22.3 GVER195G96
     K23H04X  C2020 05 01.33645414 15 53.605+30 47 50.30         21.71GVER195F52
     K23H04X  C2020 05 09.51832114 04 30.594+32 49 14.10         21.57GVER195F52
     K23H04X  C2020 05 09.52877714 04 29.673+32 49 21.92         22.19GVER195F52
     K23H04X  C2020 05 17.29108 13 54 04.40 +34 02 58.6          22.4 GVER195G96
     K23H04X  C2020 05 17.29625 13 54 03.95 +34 03 00.3          21.6 GVER195G96
     K23H04X  C2020 05 17.30143 13 54 03.58 +34 03 02.8          22.5 GVER195G96
     K23H04X  C2020 05 23.28645513 46 53.897+34 31 23.23         21.38GVER195F51
     K23H04X  C2020 05 28.35088713 41 44.403+34 36 46.97         21.57GVER195F51
     K23H04X  C2020 05 29.32556813 40 51.792+34 35 58.33         22.21GVER195F52
     K23H04X  C2020 05 29.33600013 40 51.219+34 35 57.53         22.19GVER195F52
     K23H04X  C2020 05 29.34631613 40 50.622+34 35 56.60         21.93GVER195F52
     K23H04X  C2020 05 29.35662813 40 50.025+34 35 55.88         22.28GVER195F52
     K23H04X  C2020 06 10.23320 13 33 27.98 +33 42 40.0          22.2 GVER195G96
     K23H04X  C2020 06 10.23837 13 33 27.79 +33 42 37.3                VER195G96
     K23H04X  C2020 06 17.29870313 32 10.236+32 37 34.24         21.76GVER195F51
     K23H04X  C2020 06 22.25480213 32 39.795+31 38 54.37         22.32GVER195F52
     K23H04X  C2020 07 01.31320113 36 27.342+29 26 51.75         21.98GVER195F51
     K23H04X  C2020 07 01.32487313 36 27.722+29 26 40.01         22.15GVER195F51
     K23H04X  C2020 07 01.33659413 36 28.089+29 26 28.87         22.04GVER195F51
Observer details:
F51 Pan-STARRS 1, Haleakala.  Observers J. Bulger, K. Chambers, T. Lowe, P.
    Minguez, A. Schultz, I. Smith.  Measurers S. Chastel, J. Fairlamb, M.
    Huber, Y. Ramanjooloo, R. Wainscoat, R. Weryk.  1.8-m Ritchey-Chretien +
    CCD.
F52 Pan-STARRS 2, Haleakala.  Observers J. Bulger, K. Chambers, T. Dukes, T.
    Lowe, P. Minguez, A. Schultz, I. Smith.  Measurers S. Chastel, J.
    Fairlamb, M. Huber, Y. Ramanjooloo, R. Wainscoat, R. Weryk.  1.8-m
    Ritchey-Chretien + CCD.
G96 Mt. Lemmon Survey.  Observers G. J. Leonard, H. Groeller.  Measurers B.
    Gray, D. Rankin, F. C. Shelly.  1.5-m reflector + 10K CCD.
First and last observations above in comparison with prediction:
Residuals in seconds of arc, reference and Delta-T
200403 F52 32.1+  2.9+    200701 F51 21.9+ 17.4+    MPO745033   +0.00 days
Orbital elements:
2023 HX4                                            PHA, Earth MOID = 0.0276 AU
Epoch 2023 Sept. 13.0 TT = JDT 2460200.5                Veres                   
M  12.51442              (2000.0)            P               Q                  
n   0.34068544     Peri.  170.61380     +0.78535584     +0.59035259             
a   2.0303317      Node   150.58913     -0.58972749     +0.80499288             
e   0.5179831      Incl.   22.29247     -0.18824903     -0.05890907             
P   2.89           H   20.00          G   0.15           U   0                  
Residuals in seconds of arc
200403 F52  0.2-  0.3+    230507 695  0.1+  0.3-    230624 B88  0.6-  0.3-
200422 F52  0.0   0.0     230507 695  0.2-  0.0     230624 B88  1.4-  0.7-
200422 F52  0.0   0.0     230507 695  0.1-  0.0     230624 B88  0.5+  0.1+
200422 F52  0.2+  0.1-    230507 I52  0.2+  0.1+    230626 H21  0.0   0.2+
200428 F52  0.1-  0.2-    230507 I52  0.4+  0.0     230626 H21  0.0   0.2+
200429 G96  0.7-  0.1-    230507 I52  0.3-  0.4+    230626 H21  0.1+  0.1+
200429 G96 (0.2+  0.9+)   230507 I52  0.2-  0.1+    230626 H21  0.1+  0.1+
200429 G96  0.4-  0.5+    230516 V06  0.2+  0.1+    230626 H21  0.0   0.0
200501 F52  0.3+  0.1+    230516 V06  0.1-  0.0     230627 H21  0.2+  0.1+
200509 F52  0.5+  0.3-    230516 V06  0.2-  0.1+    230627 H21  0.0   0.3+
200509 F52  0.2+  0.1+    230516 V06  0.1-  0.1+    230627 H21  0.3+  0.1+
200517 G96  0.2+  0.1-    230525 I52  0.4-  0.8-    230627 H21  0.1+  0.2+
200517 G96  0.2-  0.5-    230525 I52  0.1+  0.1-    230627 H21  0.1+  0.4+
200517 G96  0.4+  0.0     230525 I52  0.2+  0.0     230627 H21  0.2-  0.1+
200523 F51  0.1-  0.3-    230530 G96  0.0   0.1+    230702 B88  0.4+  0.1+
200528 F51  0.1+  0.0     230530 G96  0.0   0.1+    230702 B88  0.3+  0.1-
200529 F52  0.3-  0.1+    230530 G96  0.1+  0.1-    230702 B88  0.4-  0.0
200529 F52  0.1+  0.1+    230530 G96  0.2-  0.0     230706 F52  0.0   0.0
200529 F52  0.0   0.1-    230608 I52  0.2-  0.0     230706 F52  0.1+  0.2+
200529 F52  0.0   0.1-    230608 I52  0.0   0.2+    230706 F52  0.0   0.2+
200610 G96  0.2-  0.0     230608 I52  0.0   0.0     230706 F52  0.1-  0.1+
200610 G96 (0.9-  0.3-)   230608 I52  0.0   0.0     230708 B88  0.3+  0.2-
200617 F51  0.3+  0.1+    230609 H21  0.1+  0.3+    230708 B88  0.2+  0.0
200622 F52  0.2-  0.0     230609 H21  0.0   0.4+    230708 B88  0.3-  0.1+
200701 F51  0.4+  0.1-    230610 F52  0.1+  0.0     230709 B88  0.0   0.1+
200701 F51  0.3+  0.3-    230610 F52  0.0   0.0     230709 B88  0.0   0.0
200701 F51  0.1-  0.2+    230610 F52  0.0   0.1-    230709 C95  0.2+  0.1+
230423 G96  0.1+  0.6-    230610 F52  0.0   0.0     230709 C95  0.1-  0.2-
230423 G96  0.0   0.2-    230610 F52  0.1-  0.0     230709 B88  0.3-  0.1-
230423 G96  0.0   0.2-    230610 F52  0.0   0.1-    230710 B88  0.1-  0.5+
230423 G96  0.0   0.0     230610 F52  0.0   0.0     230710 B88  0.1+  0.3-
230423 G96  0.1+  0.0     230610 F52  0.0   0.1-    230710 B88  0.2+  0.1-
230423 G96  0.0   0.3+    230610 F52  0.1+  0.1+    230712 C95  0.6-  0.5+
230424 H21  0.4+  0.2-    230610 F52  0.0   0.0     230712 C95  0.1-  0.5+
230424 H21  0.1+  0.2-    230613 H21  0.3-  0.1+    230716 033  0.0   0.2-
230424 H21  0.2-  0.3+    230613 H21  0.1+  0.2+    230716 033  0.1+  0.1+
230424 I52  0.1+  0.0     230615 H21  0.6+  0.2+    230716 033  0.0   0.1+
230424 I52  0.1-  0.4-    230615 H21  0.4+  0.1-    230717 033  0.1-  0.2-
230425 V06 (1.3-  0.9+)   230615 H21  0.2+  0.2+    230717 033  0.1+  0.1-
230425 V06  0.2+  0.2-    230615 H21  0.3+  0.2-    230717 033  0.1+  0.1+
230425 V06  0.2+  0.1+    230615 H21  0.2+  0.2-    230717 033  0.1-  0.1-
230426 V06  0.1+  0.0     230615 G96  0.2-  0.1-    230726 Z84  0.1-  0.1-
230426 V06  0.5-  0.0     230615 G96  0.0   0.0     230726 Z84  0.2-  0.1-
230426 V06  0.2-  0.1-    230615 G96  0.1-  0.1-    230726 Z84  0.0   0.3-
230426 V06  0.1+  0.1-    230615 G96  0.3+  0.1+    230810 033  0.1+  0.6+
230426 G96  0.1+  0.2+    230616 H21  0.3+  0.2-    230810 033  0.4+  0.0
230426 G96  0.0   0.2-    230616 H21  0.2+  0.0     230810 033  0.2+  0.1-
230426 G96  0.1+  0.1+    230616 H21  0.2+  0.1+    230810 033  0.0   0.1+
230427 V06  0.1+  0.1-    230616 H21  0.2+  0.0     230811 033  0.2+  0.2-
230427 V06  0.6+  0.2+    230618 F52  0.1-  0.1-    230811 033  0.2+  0.4-
230427 V06  0.2+  0.2+    230618 F52  0.0   0.0     230811 033  0.2-  0.1-
230427 291  0.0   0.2+    230618 F52  0.2-  0.1-    230811 033  0.1-  0.2-
230427 291  0.1+  0.1-    230618 F52  0.1+  0.0     230815 M49  0.1+  0.5+
230427 291  0.0   0.2+    230622 H21  0.4+  0.3+    230815 M49  0.0   0.3+
230428 V06  0.0   0.4+    230622 H21  0.4+  0.7+    230815 M49  0.2+  0.1-
230428 V06  0.2-  0.2-    230622 H21  0.5+  0.7+    230816 M49  0.4+  0.3-
230429 691  0.1-  0.0     230622 H21  0.4+  0.5+    230816 M49  0.1-  0.5+
230429 691  0.2-  0.1-    230622 H21  0.7+  0.5+    230816 M49  0.4-  0.9-
230430 291  0.1-  0.1+    230622 B88  0.1-  0.0     230901 F52  0.1-  0.0
230430 291  0.1-  0.0     230623 B88  1.8-  0.0     230901 F52  0.0   0.1-
230430 291  0.1-  0.1+    230623 B88  1.3+  0.0     230901 F52  0.1-  0.1+
Ephemeris:
2023 HX4                 a,e,i = 2.03, 0.52, 22                  q = 0.9787
Date    TT    R. A. (2000) Decl.     Delta      r    Elong.  Phase     V
2023 08 15    04 19 36.7 +20 46 41   0.1633  0.9834    75.0    95.8    19.5
...
2023 08 30    04 55 52.6 -08 23 26   0.2378  1.0186    85.4    81.2    19.8
...
2023 09 07    05 06 35.0 -16 54 33   0.2873  1.0499    90.4    73.8    20.0
...
2023 09 13    05 11 52.0 -21 36 04   0.3247  1.0780    93.8    68.7    20.1
2023 09 14    05 12 31.7 -22 16 55   0.3308  1.0831    94.4    67.9    20.2
2023 09 15    05 13 07.7 -22 56 18   0.3370  1.0882    95.0    67.1    20.2
...
2023 09 21    05 15 26.5 -26 25 33   0.3732  1.1209    98.3    62.4    20.3
...
2023 09 29    05 15 08.0 -30 06 22   0.4196  1.1686   102.8    56.7    20.5
...
2023 10 14    05 04 18.1 -34 43 30   0.5017  1.2675   111.0    47.3    20.8
A. U. Tomatic                (C) Copyright 2023 MPC           M.P.E.C. 2023-R195
    
    
More information about the Iaude
mailing list